STARLINK-4687, 53784

Orbit data source: Space-Track

STARLINK-4687, 53784 is a payload satellite owned by SpaceX/Seattle (US) in LEO that was launched on Sun, 11 Sep 2022 UTC via an FALCON 9 launch vehicle from the Air Force Eastern Test Range (AFETR). Payload-class satellites include a variety of spacecraft equipped with specific instruments for various scientific and technological missions. These include communications satellites like Starlink; space stations such as the ISS; scientific satellites like the Hubble; Earth observation satellites from companies like Planet Labs, Umbra, and HawkEye 360; GPS; miniature CubeSats for education and research; and military/defense satellites.

Loading next visibility...
Identifier
53784, 2022-111M
Orbit
LEO
Country
Flag of USUS
Related business
Manufacturer
SpaceX/Seattle
Mission
Operational Commercial Communications
Bus & Motor
STARLINK, Unknown motor
Mass
305 kg wet, ~290 kg dry
Launch date (UTC)
2022-09-11 (3 years ago)
Launch vehicle
FALCON 9
Launch site
Air Force Eastern Test Range (AFETR)
Object type
Payload
Rocket body
Debris
Shape & HBR
Box + 1 Pan, 10.1 m
Radar Cross Section
13.562 m², Large (>1 m²)

Expand to show TLE details & history
Last TLE update: 22 hours ago

TLE from 22 hours ago
0 STARLINK-4687
1 53784U 22111M   25286.09363190 -.00000384  00000-0 -60597-5 0  9997
2 53784  53.2162 216.7440 0001383  89.7498 270.3652 15.08840223171414
Epoch: 2025-10-13T02:14Z
TLE epoch observation values (Epoch: 2025-10-13T02:14:49.796Z)
Latitude
-0.00006°
Longitude
161.13512°
Altitude
540.634 km
Speed
7.593 km/s
True Right ascension
14h 26m 58s
True Declination
0° 00' 00"
Sunlit
Object was in daylight at epoch
Visualization orbit readout
Latitude
Unknown
Longitude
Unknown
Altitude
Unknown
Speed
Unknown
Apparent Right ascension
Unknown
Apparent Declination
Unknown
Sunlit
N/A
Visualization observer readout
Local Sidereal Time
18:50:40
Azimuth
Unknown
Elevation
Unknown
Doppler factor
Unknown
Orbital elements
Apogee altitude
540.945 km
Perigee altitude
539.031 km
Semi-major axis
6,918.125 km
Eccentricity
0.00014
Inclination
53.2162°
RAAN
216.744°
Arg. of periapsis
89.7498°
True anomaly
270.34935°
Mean anomaly
270.3652°
Eccentric anomaly
270.35728°
Mean motion
3.7719 °/min
Orbital period
95.44 mins
BSTAR
-0.0000060597
Loading maneuver chart data...
Computing Atmospheric mass density...
Loading historical data...
Loading historical data...
Loading historical data...
Loading historical data...
Loading historical data...
Loading historical data...
Loading historical data...

Documentation

Showing up to 5 results
|